Preview of NWS' New Version of Forecast
This preview is not operational and should not be used for support decisions.

Regional Weather Roundup (RWR)

Issued by National Weather Service (NWS)

                            
000
ASUS45 KBOU 182110
RWRCO 

WEATHER ROUNDUP FOR COLORADO
NATIONAL WEATHER SERVICE DENVER/BOULDER CO
200 PM MST MON FEB 18 2019

NOTE: "FAIR" INDICATES FEW OR NO CLOUDS BELOW 12000 FEET WITH NO
SIGNIFICANT WEATHER AND/OR OBSTRUCTIONS TO VISIBILITY.

COZ001>005-013-030-031-182200-
...NORTHWEST COLORADO...
  
CITY           SKY/WX    TMP DP  RH WIND       PRES   REMARKS
CRAIG          CLOUDY    17  10  74 CALM      29.88F                  
HAYDEN         FAIR      14   9  80 SW7       29.86F WCI   4          
MEEKER         LGT SNOW  27  14  58 VRB5      29.82F WCI  22          
RANGELY        CLOUDY    23  10  59 E15       29.89F WCI  10          
RABBIT EARS PA LGT SNOW  12   9  85 MISG      29.71F                  
STEAMBOAT SPGS FAIR      22  10  60 CALM      29.82F                  
WALDEN         FAIR       9   0  66 CALM      29.81F                  
$$

COZ006>008-011-182200-
...WEST CENTRAL VALLEYS...
  
CITY           SKY/WX    TMP DP  RH WIND       PRES   REMARKS
GRAND JUNCTION CLOUDY    31  25  78 NW8       29.83F WCI  23          
MONTROSE       CLOUDY    30  14  51 N9        29.82F WCI  22          
EAGLE          FAIR      27   9  46 W5        29.82F WCI  22          
RIFLE          CLOUDY    32  13  45 SW7       29.81F WCI  26          
DELTA          CLOUDY    35  16  46 W7        29.82F WCI  29          
NUCLA          CLOUDY    28  21  74 NW5       29.81F WCI  23          
$$

COZ017>023-064>068-182200-
...SOUTHWEST COLORADO...
  
CITY           SKY/WX    TMP DP  RH WIND       PRES   REMARKS
DURANGO        HVY SNOW  25  25 100 E6        29.81F VSB 1/4 WCI  18  
CORTEZ         LGT SNOW  31  21  66 S18G28    29.81F WCI  19          
PAGOSA SPRINGS LGT SNOW  25  23  93 CALM      29.83F VSB 3/4          
TELLURIDE      LGT SNOW  19  12  73 CALM      29.74F                  
WOLF CREEK PAS CLOUDY     7   5  92 S10G17    29.76F WCI  -8          
$$

COZ009-010-012-014-032>034-037-058>063-182200-
...CENTRAL COLORADO...
  
CITY           SKY/WX    TMP DP  RH WIND       PRES   REMARKS
ASPEN          FAIR      28   4  35 S7G21     29.74F WCI  21          
BUENA VISTA    FAIR      13   2  62 W5        29.86F WCI   5          
COPPER MTN     CLOUDY    14   0  52 S14       29.69S WCI  -1          
BERTHOUD PASS  CLOUDY     3  -8  60 SE6       29.68F WCI  -8          
COTTONWOOD PAS PTSUNNY   12   5  73 CALM      29.77F                  
GUNNISON       CLOUDY    16   7  67 NE8       29.79F WCI   5          
GRANBY         FAIR      16   2  55 CALM      29.78F                  
KREMMLING      FAIR      19   5  53 CALM      29.82F                  
LEADVILLE      FAIR       9   3  77 S16       29.73F WCI  -8          
MONARCH PASS     N/A      9   3  78 S7        29.82S WCI  -3          
SALIDA         CLOUDY    18   9  66 CALM      29.95F                  
SUNLIGHT       LGT SNOW  12   7  79 MISG      29.75S                  
WILKERSON PASS PTSUNNY   10   5  79 SW9       29.77S WCI  -2          
$$

COZ069>075-182200-
...SAN LUIS VALLEY/SANGRE DE CRISTO MOUNTAINS...
  
CITY           SKY/WX    TMP DP  RH WIND       PRES   REMARKS
ALAMOSA        FAIR      28  15  58 S25G32    29.82F WCI  13          
DEL NORTE      CLOUDY    22  11  63 E3        29.82F                  
LA VETA PASS   NOT AVBL                                               
SAGUACHE       FAIR      27  14  59 CALM      29.84F                  
$$

COZ035-036-038>040-182200-
...NORTHERN COLORADO FRONT RANGE...
  
CITY           SKY/WX    TMP DP  RH WIND       PRES   REMARKS
DENVER INTL AP PTSUNNY   19  10  68 W6        30.00F WCI  11          
AURORA         PTSUNNY   18   8  65 N9        29.99F WCI   7          
FRONT RANGE AP PTSUNNY   23   9  54 NE3       30.00F                  
ERIE MUNI ARPT LGT SNOW  19   8  62 NW8       30.09F WCI   9          
BOULDER MUN AP CLOUDY    19   9  63 N3        30.03F                  
CENTENNIAL     PTSUNNY   18   8  65 N7        29.97F WCI   9          
BROOMFIELD     PTSUNNY   16  10  79 N6        30.01F FOG     WCI   7  
FORT COLLINS   LGT SNOW  15   8  73 CALM      30.07F                  
LONGMONT       CLOUDY    22   8  57 N3        30.07F HAZE             
$$

COZ041-046-047-076>085-087-088-182200-
...PIKES PEAK/PALMER DIVIDE AND SOUTHERN FOOTHILLS...
  
CITY           SKY/WX    TMP DP  RH WIND       PRES   REMARKS
COLO. SPRINGS  LGT SNOW  12   7  80 SE14      30.00F VSB 1   WCI  -3  
A. F. ACADEMY  CLOUDY    12   6  76 SE13      29.95F BLWGSNOWWCI  -3  
SCHRIEVER AFB  NOT AVBL                                               
CHEYENNE MTN   LGT SNOW   8   6  92 SE13G18   29.88F VSB 5/8 WCI  -8  
ELLICOTT       NOT AVBL                                               
FALCON         LGT SNOW  11   4  72 S9G18     29.96F WCI  -1          
FORT CARSON    CLOUDY    13   7  76 S14       30.00F BLWGSNOWWCI  -2  
LIMON          LGT SNOW  14   9  80 SE14      30.06F WCI  -1          
MONUMENT HILL  FAIR      14   5  67 S9        29.93F WCI   2          
CANON CITY     FLURRIES  21  12  68 E7        30.03F WCI  13          
WALSENBURG     NOT AVBL                                               
TRINIDAD       FAIR      20  14  77 NE12      30.01F WCI   8          
$$

COZ042>045-048>051-090-091-182200-
...NORTHEAST COLORADO...
  
CITY           SKY/WX    TMP DP  RH WIND       PRES   REMARKS
GREELEY ARPT   FAIR      21   6  52 SE8       30.09F WCI  11          
AKRON          LGT SNOW  14   8  77 E13       30.12F WCI   0          
BURLINGTON     CLOUDY    19  12  74 SE14      30.19F WCI   6          
WRAY           CLOUDY    21   9  58 NE6       30.24F WCI  14          
YUMA           FLURRIES  14   7  73 SE5       30.18F WCI   6          
STERLING       FLURRIES  21   9  58 E5        30.16F WCI  15          
HOLYOKE        FLURRIES  19  10  68 E6        30.24F WCI  11          
FORT MORGAN      N/A     19   4  52 E13       30.11F WCI   6          
$$

COZ086-089-092>099-182200-
...SOUTHEAST COLORADO...
  
CITY           SKY/WX    TMP DP  RH WIND       PRES   REMARKS
PUEBLO         CLOUDY    17  10  74 SE14      30.11F WCI   3          
LA JUNTA       FLURRIES  14   8  77 E12       30.17F WCI   0          
LAMAR          LGT SNOW  16   9  74 E9        30.22F WCI   4          
SPRINGFIELD      N/A     13   9  84 SE10      30.17F WCI   0          
$$